Back to Previous

Regional Weather Roundup

470 
ASUS44 KLZK 210205
RWRLZK

WEATHER ROUNDUP FOR ARKANSAS
NATIONAL WEATHER SERVICE LITTLE ROCK AR
900 PM CDT MON OCT 20 2014

NOTE: "FAIR" INDICATES FEW OR NO CLOUDS BELOW 12,000 FEET WITH NO
SIGNIFICANT WEATHER AND/OR OBSTRUCTIONS TO VISIBILITY.

ARZ001-003-010-029-210300-
NORTHWEST ARKANSAS
  
CITY           SKY/WX    TMP DP  RH WIND       PRES   REMARKS
FAYETTEVILLE   FOG       53  53 100 CALM      30.08R VSB 1/2          
FORT SMITH     MOCLDY    63  58  83 CALM      30.04S                  
HARRISON       CLEAR     60  57  89 W7        30.06R                  
BENTONVILLE    CLEAR     57  54  88 CALM      30.07S                  
ROGERS         CLEAR     59  57  93 SW5       30.08S                  
SILOAM SPGS    CLEAR     57  52  82 CALM      30.08S                  
HIGHFILL       CLEAR     56  55  97 SW5       30.06S FOG              
SPRINGDALE     CLEAR     57  55  94 CALM      30.09R FOG              
$$

ARZ004-005-016-210300-
NORTH CENTRAL ARKANSAS
  
CITY           SKY/WX    TMP DP  RH WIND       PRES   REMARKS
BATESVILLE     CLEAR     61  55  82 W5        30.03R                  
FLIPPIN        CLEAR     63  54  72 SW3       30.03S                  
MTN HOME       CLEAR     62  58  86 W3        30.03R                  
$$

ARZ040-041-210300-
WEST CENTRAL ARKANSAS
  
CITY           SKY/WX    TMP DP  RH WIND       PRES   REMARKS
MENA           CLEAR     61  59  94 CALM      30.07R                  
MOUNT IDA      CLEAR     60  57  89 CALM      30.04S FOG              
$$

ARZ009-017-025-026-028-210300-
NORTHEAST ARKANSAS
  
CITY           SKY/WX    TMP DP  RH WIND       PRES   REMARKS
JONESBORO      PTCLDY    65  56  72 W7        30.01S                  
NEWPORT        CLEAR     59  55  86 SE7       30.03S                  
WALNUT RIDGE   CLEAR     61  55  82 SW8       29.99F                  
BLYTHEVILLE    PTCLDY    62  55  77 SW6       30.00S                  
$$

ARZ022-023-033-042-044-210300-
CENTRAL ARKANSAS
  
CITY           SKY/WX    TMP DP  RH WIND       PRES   REMARKS
LITTLE ROCK    CLEAR     62  54  74 W7        30.04R                  
N LITTLE ROCK  CLEAR     63  58  84 W5        30.04R                  
JACKSONVILLE   CLEAR     60  56  88 NW2       30.04R                  
SEARCY         CLEAR     57  55  93 CALM      30.05R                  
HOT SPRINGS    CLEAR     60  57  89 CALM      30.05S                  
RUSSELLVILLE   CLEAR     58  56  93 CALM      30.04S                  
$$

ARZ036-210300-
EAST ARKANSAS
  
CITY           SKY/WX    TMP DP  RH WIND       PRES   REMARKS
WEST MEMPHIS   CLEAR     55  53  93 CALM      30.03R                  
$$

ARZ050-053-066-070-073-210300-
SOUTHWEST ARKANSAS
  
CITY           SKY/WX    TMP DP  RH WIND       PRES   REMARKS
ARKADELPHIA    FAIR      61  61 100 CALM      30.05S                  
CAMDEN         CLEAR     59  55  88 CALM      30.05R FOG              
TEXARKANA      CLEAR     62  56  80 CALM      30.05R                  
EL DORADO      CLEAR     60  57  89 CALM      30.05S                  
DE QUEEN       CLEAR     61  60  97 CALM      30.03S FOG              
$$

ARZ056-057-069-210300-
SOUTHEAST ARKANSAS
  
CITY           SKY/WX    TMP DP  RH WIND       PRES   REMARKS
PINE BLUFF     CLEAR     62  55  77 CALM      30.04S                  
STUTTGART      CLEAR     63  54  72 CALM      30.05R                  
MONTICELLO     CLEAR     58  55  90 CALM      30.04S                  

$$




USA.gov is the U.S. government's official web portal to all federal, state and local government web resources and services.